CAPE
288 223 406 548 448 478 418 397 692 744 1097 939 677 728 735 918 772 864 949 1003 1012 1164 1142 1087 1055 1155 1101 927 825 856 861 789 573 569 540 948 1144 1049 382 428 897 1076 1011
284 310 460 468 433 612 636 630 773 798 1078 1006 831 841 797 812 1094 1066 1192 1178 971 885 1073 1034 1094 1167 1248 1214 1394 1151 1087 927 611 690 776 774 991 633 676 774 974 1003 981
356 364 370 482 425 764 979 696 791 1131 1109 950 940 934 799 856 987 929 1129 1295 1147 880 1034 890 681 1130 1302 1439 1334 1278 1062 930 823 794 840 783 702 697 837 826 912 978 1044
375 375 405 384 291 756 897 870 926 1281 1076 1043 926 765 698 469 689 1126 1226 1240 1214 1034 1035 750 540 720 1045 1324 1260 1099 838 798 820 721 780 723 728 905 738 953 1034 1056 1016
369 383 400 223 425 728 785 1009 1210 977 854 914 712 450 372 539 640 895 1079 916 898 896 773 585 460 260 631 1142 1229 902 689 721 720 737 666 760 805 824 1018 1069 931 922 810
308 314 292 277 446 410 803 822 940 881 730 578 500 358 288 571 638 663 620 510 646 644 442 339 347 325 700 897 1060 595 476 617 545 677 688 811 793 898 1120 1042 731 664 560
218 398 321 276 173 379 519 577 691 733 651 515 324 248 288 499 635 569 271 140 46 285 390 303 314 259 365 591 601 422 444 443 494 543 563 522 538 906 845 582 481 523 493
196 357 313 231 186 144 150 245 327 492 516 394 256 213 275 471 501 531 580 312 66 107 364 409 386 293 324 443 367 327 386 380 480 573 495 300 205 399 433 315 185 148 345
213 278 205 107 105 64 21 15 2 81 308 357 199 187 209 271 378 566 498 305 103 140 250 264 292 173 194 298 261 272 357 395 488 488 401 301 582 591 479 392 182 102 247
202 176 248 168 104 5 0 3 4 42 99 161 112 36 13 0 36 124 195 243 289 1 228 270 217 182 254 232 142 141 193 289 309 334 308 402 517 561 411 294 264 218 203
96 63 16 49 22 11 3 0 2 0 0 0 0 0 0 0 0 0 4 50 146 44 86 75 128 132 98 76 66 50 88 73 76 131 265 372 448 326 177 109 74 66 28
92 93 52 55 45 14 32 0 3 0 0 0 1 0 2 0 0 0 0 31 92 52 73 127 113 23 24 5 7 23 13 8 22 64 124 182 183 78 29 20 10 10 10
166 170 167 122 111 5 0 0 5 5 10 2 7 4 0 0 0 0 0 11 21 21 61 93 5 1 0 2 8 6 2 2 3 8 20 52 57 24 18 9 8 10 11
154 137 46 41 18 0 0 3 0 2 0 0 0 0 0 0 0 1 0 1 1 1 2 2 2 0 0 17 1 1 2 2 2 2 1 5 12 11 7 6 7 6 5
35 3 1 11 3 1 6 2 2 2 0 0 0 0 0 0 0 0 1 0 0 2 1 2 1 4 9 2 2 2 2 1 0 1 1 2 2 5 4 3 1 2 3
91 0 2 1 6 3 5 1 0 0 0 0 0 0 0 0 0 2 1 2 1 2 1 1 2 1 1 3 2 2 2 0 0 0 0 5 1 3 7 6 7 7 8
75 4 0 3 20 2 1 0 0 0 0 0 0 0 0 0 0 0 1 1 2 3 1 0 1 1 0 1 2 1 0 0 0 0 0 0 0 0 5 5 11 7 6
0 3 1 1 26 1 0 0 0 0 0 0 0 0 0 0 0 0 0 0 1 3 3 1 1 1 0 0 0 0 0 0 0 0 0 0 0 0 5 7 7 7 7
0 0 2 3 24 0 0 0 0 0 0 0 0 0 0 0 0 0 0 2 1 2 1 0 0 0 0 0 0 0 0 0 0 0 0 0 0 0 0 1 3 5 2
0 0 1 1 12 13 0 0 0 0 0 0 0 0 0 0 0 0 1 1 2 2 3 2 0 0 0 0 0 0 0 0 0 0 0 0 0 0 0 0 0 1 3
0 0 2 4 2 2 0 0 0 0 0 0 0 0 0 0 0 0 2 1 1 2 1 0 0 0 0 0 0 0 0 0 0 0 0 0 0 0 0 0 0 0 0
0 2 2 5 5 3 3 0 0 0 0 0 0 0 0 0 0 0 0 1 1 1 1 0 0 0 0 0 0 0 0 0 0 0 0 0 0 0 0 0 0 0 0
1 2 3 4 5 4 4 1 0 0 0 0 0 0 0 0 0 0 0 0 0 1 1 0 0 0 0 0 0 0 0 0 0 0 0 0 0 0 0 0 0 0 0
1 1 2 2 3 4 4 1 0 0 0 0 0 0 0 0 0 0 0 0 0 0 0 0 0 0 0 0 0 0 0 0 0 0 0 0 0 0 0 0 0 0 0
0 1 1 1 1 3 4 3 1 0 0 0 0 0 0 0 0 0 0 0 0 0 0 0 0 0 0 0 0 0 0 0 0 0 0 0 0 0 0 0 0 0 0
0 0 1 1 2 1 5 4 3 0 0 0 0 0 0 0 0 0 0 0 0 0 0 0 0 0 0 0 0 0 0 0 0 0 0 0 0 0 0 0 0 0 0
CIN
-251 -310 -254 -203 -177 -139 -122 -111 -61 -36 0 -1 -3 -1 0 -1 -5 -3 -1 -2 -3 0 0 0 -1 -2 -7 -14 -20 -19 -14 -14 -9 -12 -19 -7 0 0 -13 -4 -1 0 0
-251 -308 -252 -207 -169 -109 -91 -80 -47 -30 0 -1 -1 0 0 -1 0 0 0 0 -4 -5 -2 0 -1 0 0 -1 0 -6 -8 -8 -17 -14 -13 -10 -1 -3 -2 -2 -2 0 0
-252 -294 -254 -198 -167 -91 -56 -73 -47 -7 -1 -2 -1 0 0 0 0 -3 0 0 -1 -5 -1 -3 -8 -1 0 0 0 0 -5 -10 -12 -10 -7 -4 -3 -2 0 -4 -1 0 0
-232 -274 -235 -204 -186 -81 -59 -43 -29 0 0 -1 0 -1 -1 -8 -3 0 0 0 -1 0 -1 -6 -14 -6 -5 -1 -1 -6 -14 -14 -10 -9 -5 -4 0 0 -3 -3 0 0 0
-201 -230 -214 -223 -144 -78 -59 -24 -4 -2 -6 0 -2 -9 -16 -12 -9 0 0 -2 -7 -6 -5 -15 -32 -54 -16 -4 -4 -11 -17 -15 -9 -8 -8 -4 -5 0 0 0 0 0 0
-170 -191 -205 -177 -116 -96 -37 -23 -5 0 -4 -3 -4 -8 -21 -11 -4 -1 -8 -24 -14 -6 -17 -29 -26 -23 -6 -8 -7 -19 -15 -9 -11 -10 -9 -6 -4 0 0 0 0 0 -1
-166 -164 -181 -161 -150 -86 -55 -37 -11 0 0 0 -12 -14 -9 -11 -2 -2 -35 -61 -80 -37 -28 -31 -27 -26 -6 -9 -15 -18 -12 -10 -4 -14 -14 -18 -10 0 -1 -3 -3 0 0
-152 -184 -186 -171 -138 -123 -98 -54 -36 -8 0 -3 -12 -9 -9 -8 -9 -3 -1 -23 -89 -86 -25 -21 -14 -27 -5 -5 -12 -14 -17 -11 -9 -20 -23 -14 -41 0 0 -1 -3 -5 0
-130 -143 -209 -215 -175 -162 -177 -108 0 -58 -2 -1 -5 -4 -6 -21 -23 -1 0 -2 -50 -52 -28 -22 -10 -9 -2 -4 -6 -31 -22 -24 -27 -32 -22 -21 -2 0 -1 0 0 -26 -9
-112 -122 -163 -175 -173 -238 0 -1 -2 -87 -32 -4 -14 -34 -77 0 -85 -39 -23 -3 -1 -7 -9 -24 -32 -10 -1 -9 -25 -32 -30 -37 -45 -35 -19 -12 -1 0 0 0 0 0 0
-136 -175 -225 -219 -222 -195 -72 0 -3 0 0 0 -30 0 0 0 0 0 -73 -49 -4 -23 -26 -49 -14 -6 -10 -23 -17 -37 -48 -47 -50 -30 -3 0 0 0 -1 -1 -2 -2 -9
-144 -158 -131 -130 -152 -172 -178 0 -4 0 0 0 -6 0 -5 0 0 0 0 -65 -26 -19 -9 -16 -6 -44 -47 -19 -26 -48 -54 -60 -46 -8 0 0 0 -4 -22 -44 0 0 0
-102 -116 -102 -86 -36 -157 0 0 -8 -9 -8 -9 -9 -11 -2 0 0 0 0 -117 -30 -13 -3 0 -2 0 0 -4 -28 -27 -21 0 0 -63 -27 -12 -13 -60 -71 -76 0 0 0
-97 -120 -140 -72 -93 0 0 -7 -2 -7 -19 0 0 0 0 0 0 0 0 0 0 0 0 0 0 0 -2 -19 -1 0 0 0 0 0 0 0 0 0 0 0 0 0 0
-160 -131 -5 -65 -49 -12 -11 -7 -6 -12 0 0 0 0 0 0 0 0 0 0 0 0 0 0 0 -5 -3 0 0 0 0 0 0 0 -1 0 0 0 0 0 0 -1 0
-60 -5 -5 -6 -6 -9 -5 -7 -1 -2 0 0 -1 0 0 0 0 0 0 0 0 0 0 0 0 0 0 0 0 0 0 0 0 0 0 -1 -1 -2 -1 -1 -1 -1 -1
-38 -25 -7 -10 -39 -10 -10 -6 -3 0 0 0 0 0 0 0 0 0 0 0 0 0 0 0 0 0 0 0 0 0 0 0 0 0 0 0 0 0 -1 0 0 -1 -1
0 -29 -33 -18 -35 -13 -2 -10 0 0 0 0 0 0 0 0 0 0 0 0 0 0 0 0 0 0 0 0 0 0 0 0 0 0 0 0 0 0 -5 -2 -1 0 0
0 0 0 -28 -24 -8 0 0 0 0 0 0 0 0 0 0 0 0 0 0 0 0 0 0 0 0 0 0 0 0 0 0 0 0 0 0 0 0 0 -4 -3 -1 -1
0 0 0 0 -8 -24 0 0 0 -15 0 0 0 0 0 0 0 0 0 0 0 0 0 0 0 0 0 0 0 0 0 0 0 0 0 0 0 0 0 0 0 -3 -2
0 0 0 0 0 0 0 0 -1 0 0 0 0 0 0 0 0 0 0 0 0 0 0 0 0 0 0 0 0 0 0 0 0 0 0 0 0 0 0 0 0 0 0
0 0 0 0 0 0 0 0 0 0 0 0 0 0 0 0 0 0 0 0 0 0 0 0 0 0 0 0 0 0 0 0 0 0 0 0 0 0 0 0 0 0 0
0 0 0 0 0 0 0 0 0 0 0 0 0 0 0 0 0 0 0 0 0 0 0 0 0 0 0 0 0 0 0 0 0 0 0 0 0 0 0 0 0 0 0
0 0 0 0 0 0 0 0 0 0 0 0 0 0 0 0 0 0 0 0 0 0 0 0 0 0 0 0 0 0 0 0 0 0 0 0 0 0 0 0 0 0 0
0 0 0 0 0 0 0 0 0 0 0 0 0 0 0 0 0 0 0 0 0 0 0 0 0 0 0 0 0 0 0 0 0 0 0 0 0 0 0 0 0 0 0
0 0 0 0 0 0 0 0 0 -12 0 0 0 0 0 0 0 0 0 0 0 0 0 0 0 0 0 0 0 0 0 0 0 0 0 0 0 0 0 0 0 0 0
Wind_Speed
8 6 5 6 6 6 6 7 7 7 7 7 8 8 9 9 8 8 8 8 7 7 7 6 5 6 7 7 7 7 6 5 4 4 4 6 7 10 11 9 9 9 11
5 5 5 5 5 6 6 6 7 7 7 7 7 7 8 8 8 8 7 8 7 7 7 7 5 4 6 6 6 6 4 4 3 4 5 6 9 11 9 9 10 11 11
6 5 5 5 5 5 4 5 6 8 6 7 7 7 8 8 8 8 8 8 8 7 7 8 7 4 5 5 6 5 2 3 5 6 7 6 6 8 10 11 12 12 13
7 7 5 4 4 4 5 5 6 6 7 7 8 8 9 9 9 8 8 8 7 6 6 7 9 9 5 7 6 4 0 4 7 9 4 5 5 9 11 12 13 14 14
8 7 5 4 3 3 6 5 6 7 7 7 7 7 8 8 9 8 8 7 8 8 8 8 8 9 8 10 7 4 2 5 8 3 5 5 6 9 12 13 13 14 14
9 7 4 4 4 4 6 7 7 7 7 6 7 8 7 7 8 8 7 7 10 9 9 10 8 10 7 9 7 5 5 3 4 2 4 6 7 11 12 11 11 13 14
8 7 5 4 4 4 6 7 8 8 8 7 7 7 8 7 7 5 7 7 8 9 9 11 9 15 11 6 6 7 5 4 2 2 4 6 10 12 13 13 13 13 13
7 6 6 5 5 6 7 9 10 10 9 8 9 6 6 7 6 4 5 5 8 10 13 13 11 13 17 11 8 8 8 4 3 2 3 3 13 13 14 13 12 12 11
8 8 7 8 7 7 8 9 11 12 12 9 9 8 8 8 6 5 5 5 5 7 9 7 6 14 18 19 14 11 8 4 3 3 3 3 5 12 11 13 15 15 8
8 10 9 9 9 9 8 9 12 12 12 11 10 10 9 9 8 7 5 5 4 2 3 3 4 7 13 16 17 11 8 5 4 4 4 6 8 9 9 11 12 13 13
12 12 11 10 9 8 7 8 11 12 10 11 10 8 7 10 12 13 6 7 2 1 5 4 3 6 6 11 14 8 7 6 5 4 5 10 12 11 11 10 10 10 10
16 14 14 12 9 8 7 8 10 9 10 9 9 7 10 12 15 17 9 3 3 4 7 8 8 9 6 14 11 9 6 5 4 6 7 13 12 11 9 9 9 8 7
17 14 15 13 12 9 8 10 10 10 9 10 8 9 10 13 16 15 10 5 5 3 7 13 9 9 15 10 12 8 7 6 7 6 7 10 11 8 7 6 6 6 5
20 16 15 14 11 10 10 12 10 11 10 10 10 11 11 11 12 12 9 6 5 3 7 10 13 12 12 10 8 7 8 7 7 5 4 6 6 5 5 5 5 4 4
19 18 15 15 12 12 11 12 12 12 11 10 11 11 8 8 9 9 7 7 10 12 9 12 12 12 11 10 8 9 9 9 8 8 5 4 3 2 3 4 3 3 4
18 17 16 18 17 13 13 12 11 13 10 9 9 8 6 6 6 7 6 6 8 8 11 9 11 13 10 12 11 12 10 9 7 7 4 3 3 1 2 1 4 3 5
22 17 19 19 21 14 15 14 11 11 10 10 8 6 3 3 4 5 7 9 8 10 12 11 10 12 11 9 11 11 9 8 7 6 4 5 1 1 3 4 4 5 6
24 26 17 19 23 15 15 16 13 11 11 8 7 6 4 1 1 4 8 9 8 7 11 9 14 13 10 9 8 7 8 6 6 5 4 3 3 3 2 3 3 4 5
25 24 23 18 24 18 15 15 15 13 12 9 7 6 5 3 2 2 5 7 9 9 12 13 11 11 10 9 6 5 8 6 5 4 6 4 2 3 4 4 4 4 5
26 25 25 26 25 20 18 17 16 15 13 10 9 8 6 5 4 5 6 6 8 10 10 10 11 9 8 8 6 5 7 5 4 4 3 3 3 3 4 4 5 5 6
27 27 27 28 30 28 20 20 20 19 17 13 11 9 8 7 7 7 7 8 9 11 12 11 12 13 10 10 9 6 5 6 7 7 6 5 5 5 4 5 6 6 8
30 31 31 30 31 31 29 23 22 20 19 16 11 9 9 8 8 9 9 10 10 11 11 12 14 12 12 13 13 10 15 12 11 10 9 7 6 7 6 7 7 7 8
33 34 35 34 34 33 32 30 23 20 19 19 15 13 9 9 9 10 10 11 11 12 11 13 14 15 15 12 15 16 17 19 15 15 12 10 9 8 8 9 9 8 9
33 33 34 33 34 34 34 34 26 25 25 22 19 16 13 11 11 11 12 12 13 12 13 14 13 13 11 12 13 15 15 13 18 19 16 13 11 10 10 9 9 10 10
33 33 33 33 34 35 36 36 34 28 26 23 21 18 16 14 12 13 14 14 14 13 14 15 16 13 12 12 11 10 11 11 11 14 15 13 11 10 10 9 9 10 11
34 33 33 34 33 32 35 36 36 32 28 26 25 23 21 18 16 14 14 14 14 14 15 15 14 14 13 13 13 12 8 10 13 14 14 11 9 10 9 9 9 10 11
Wind_Direction
336 27 53 52 58 62 78 62 50 47 45 41 27 9 353 348 346 342 336 337 342 333 321 319 328 315 306 300 301 305 307 318 341 16 45 70 82 88 90 85 77 75 74
354 26 57 37 54 66 73 53 36 37 40 40 31 18 355 346 338 338 335 327 331 325 312 301 300 303 298 301 302 304 323 350 21 49 72 83 92 95 91 86 83 82 79
14 22 17 32 52 36 60 45 27 11 45 36 31 13 355 345 335 332 323 323 324 322 306 291 283 286 284 287 288 295 323 48 70 81 84 89 96 95 94 91 89 86 83
350 357 352 17 30 23 8 8 356 22 24 29 16 2 348 346 329 323 320 325 326 324 306 289 273 271 278 266 269 271 339 91 93 95 85 100 99 99 98 97 94 91 87
334 347 351 9 26 19 345 347 358 11 17 31 18 7 357 345 331 328 328 329 321 313 298 282 264 261 261 243 247 239 150 110 105 94 99 109 107 106 105 103 97 94 90
322 332 347 346 356 355 339 337 342 358 8 19 6 359 356 346 335 340 344 339 320 310 296 282 263 251 245 233 228 201 150 130 260 110 111 116 119 116 112 109 105 99 93
314 326 332 331 334 332 333 332 332 340 353 355 356 359 350 348 340 2 335 331 321 318 301 286 264 254 245 210 203 196 208 232 171 116 122 124 127 125 116 111 107 101 95
302 312 315 313 319 318 316 320 324 326 336 339 341 12 357 353 353 3 343 328 314 307 293 283 263 248 242 239 216 210 225 200 195 182 153 133 114 139 104 109 108 101 95
290 301 301 298 302 310 311 308 312 312 316 329 334 348 338 334 343 338 343 326 334 323 302 289 256 253 241 228 233 222 224 204 206 205 157 132 104 87 95 90 88 91 103
286 290 291 294 294 297 305 306 307 310 311 319 327 330 342 336 333 329 323 308 308 344 327 289 288 198 220 225 222 221 226 222 210 169 160 123 109 97 92 86 83 83 79
288 285 287 287 291 289 298 301 305 307 313 317 322 336 357 338 322 318 324 308 275 231 132 112 150 191 164 207 212 208 214 220 209 163 141 116 103 101 93 91 82 79 75
283 284 285 284 281 286 297 301 308 307 314 319 321 338 336 335 323 313 321 297 186 175 157 169 193 198 211 209 204 203 216 192 150 171 147 109 107 96 98 90 82 75 70
287 283 286 283 281 283 291 298 302 305 313 315 322 326 331 331 328 326 341 347 312 210 168 149 193 189 186 196 205 199 184 171 156 139 129 109 96 100 92 92 82 71 55
283 281 280 278 275 279 286 288 291 296 304 305 313 317 322 333 340 343 1 16 12 115 135 124 157 191 188 195 180 175 161 158 162 138 138 98 96 111 101 80 70 50 26
278 276 272 267 270 274 278 279 283 289 295 296 306 314 321 336 347 1 20 55 74 104 150 135 155 153 150 153 161 155 139 146 144 164 126 134 132 95 69 56 38 14 12
273 270 265 264 271 267 271 276 276 286 291 294 301 314 325 344 7 37 47 83 108 110 168 162 158 148 143 140 138 138 140 161 160 168 171 158 111 107 48 37 46 32 32
275 268 266 260 269 259 266 273 272 280 285 285 291 310 340 1 36 46 63 102 113 122 159 159 168 156 155 153 156 167 157 152 172 156 190 216 236 46 55 59 45 40 32
294 277 264 260 267 258 260 266 268 273 276 278 279 283 292 320 42 74 91 112 129 138 131 165 168 143 152 146 153 164 186 186 193 212 217 234 268 278 317 10 11 15 20
296 291 283 268 260 258 256 257 261 266 269 264 268 271 271 260 245 161 147 131 130 129 125 159 168 153 161 165 159 173 185 196 211 223 235 240 275 298 310 344 355 359 3
298 293 289 281 268 263 253 256 259 261 262 260 263 263 255 250 229 200 193 173 154 157 159 163 162 161 170 174 179 200 218 220 240 251 262 282 290 332 329 316 330 346 358
294 295 289 282 276 277 246 249 254 254 254 257 260 252 249 238 220 212 199 198 184 172 175 174 179 174 192 189 196 204 233 253 254 259 266 276 289 304 311 303 316 331 333
292 289 287 283 278 273 269 247 254 252 253 255 254 247 241 226 216 208 198 194 194 181 179 181 173 183 197 203 214 205 240 251 261 262 264 273 285 290 301 297 296 308 318
295 289 285 281 278 272 272 260 248 247 250 253 247 245 234 220 211 209 202 192 190 188 188 180 180 172 173 229 215 245 242 249 243 265 269 271 275 283 290 289 294 302 304
297 295 287 283 279 274 272 267 240 242 245 250 245 241 234 222 216 209 205 199 191 192 185 179 179 183 198 185 240 254 257 246 248 250 264 267 270 275 279 287 292 295 301
300 296 292 287 281 277 273 268 250 241 246 245 242 235 233 227 221 211 210 207 203 198 194 188 186 200 204 211 217 240 257 259 252 256 251 255 271 275 279 284 291 298 298
299 298 294 290 284 283 275 270 258 242 240 239 238 235 233 229 224 213 210 208 207 204 203 205 211 208 218 214 228 233 222 257 252 259 260 245 256 275 287 292 295 298 298